Tracking 30509 objects as of 21-May-2025
HD Live streaming from Space Station
objects crossing your sky now

ATLAS 5 CENTAUR DEB

Track ATLAS 5 CENTAUR DEB now!


NORAD ID: 44658
Int'l Code: 2018-079U
Perigee: 8,660.3 km
Apogee: 35,326.4 km
Inclination: 13.3 °
Period: 792.4 minutes
Semi major axis: 28364 km
RCS: Unknown
Launch date: October 17, 2018
Source: United States (US)
Launch site: AIR FORCE EASTERN TEST RANGE (AFETR)

Note: This is SATELLITE DEBRIS
Your satellite tracking list
Your tracking list is empty




NASA's NSSDC Master Catalog

Two Line Element Set (TLE):
1 44658U 18079U   25136.34696493 -.00000077  00000-0  00000-0 0  9998
2 44658  13.3017  63.1939 4700630 254.4147  50.4687  1.81736988 39780
Source of the keplerian elements: AFSPC